EHI
0 0 0 0 0 0 0 3 18 49 81 97 99 97 81 49 21 7 1 0 0 0 0 0 0 0 0 0 0 0 0 0 0 0 0 0 0 0 0 0 0 0 0
0 0 0 0 0 0 0 2 11 36 68 90 94 87 70 44 20 7 2 0 0 0 0 0 0 0 0 0 0 0 0 0 0 0 0 0 0 0 0 0 0 0 0
0 0 0 0 0 0 0 0 4 19 47 75 85 70 46 26 12 4 2 1 0 0 0 0 0 0 0 0 0 0 0 0 0 0 0 0 0 0 0 0 0 0 0
0 0 0 0 0 0 0 0 1 9 30 60 76 64 37 15 5 3 2 1 0 0 0 0 0 0 0 0 0 0 0 0 0 0 0 0 0 0 0 0 0 0 0
0 0 0 0 0 0 0 0 0 5 21 46 66 64 40 15 4 2 1 0 0 0 0 0 0 0 0 0 0 0 0 0 0 0 0 0 0 0 0 0 0 0 0
0 0 0 0 0 0 0 0 0 4 15 33 50 52 33 11 2 1 0 0 0 0 0 0 0 0 0 0 0 0 0 0 0 0 0 0 0 0 0 0 0 0 0
0 0 0 0 0 0 0 0 0 2 8 21 32 32 21 8 1 0 0 0 0 0 0 0 0 0 0 0 0 0 0 0 0 0 0 0 0 0 0 0 0 0 0
0 0 0 0 0 0 0 0 0 0 4 11 15 14 10 4 1 0 0 0 0 0 0 0 0 0 0 0 0 0 0 0 0 0 0 0 0 0 0 0 0 0 0
0 0 0 0 0 0 0 0 0 0 2 5 5 3 2 2 1 0 0 0 0 0 0 0 0 0 0 0 0 0 0 0 0 0 0 0 0 0 0 0 0 0 0
0 0 0 0 0 0 0 0 0 0 0 1 1 0 0 0 0 0 0 0 0 0 0 0 0 0 0 0 0 0 0 0 0 0 0 0 0 0 0 0 0 0 0
0 0 0 0 0 0 0 0 0 0 0 0 0 0 0 0 0 0 0 0 0 0 0 0 0 0 0 0 0 0 0 0 0 0 0 0 0 0 0 0 0 0 0
0 0 0 0 0 0 0 0 0 0 0 0 0 0 0 0 0 0 0 0 0 0 0 0 0 0 0 0 0 0 0 0 0 0 0 0 0 0 0 0 0 0 0
0 0 0 0 0 0 0 0 0 0 0 0 0 0 0 0 0 0 0 0 0 0 0 0 0 0 0 0 0 0 0 0 0 0 0 0 0 0 0 0 0 0 0
0 0 0 0 0 0 0 0 0 0 0 0 0 0 0 0 0 0 0 0 0 0 0 0 0 0 0 0 0 0 0 0 0 0 0 0 0 0 0 0 0 0 0
0 0 0 0 0 0 0 0 0 0 0 0 0 0 0 0 0 0 0 0 0 0 0 0 0 0 0 0 0 0 0 0 0 0 0 0 0 0 0 0 0 0 0
0 0 0 0 0 0 0 0 0 0 0 0 0 0 0 0 0 0 0 0 0 0 0 0 0 0 0 0 0 0 0 0 0 0 0 0 0 0 0 0 0 0 0
0 0 0 0 0 0 0 0 0 0 0 0 0 0 0 0 0 0 0 0 0 0 0 0 0 0 0 0 0 0 0 0 0 0 0 0 0 0 0 0 0 0 0
0 0 0 0 0 0 0 0 0 0 0 0 0 0 0 0 0 0 0 0 0 0 0 0 0 0 0 0 0 0 0 0 0 0 0 0 0 0 0 0 0 0 0
0 0 0 0 0 0 0 0 0 0 0 0 0 0 0 0 0 0 0 0 0 0 0 0 0 0 0 0 0 0 0 0 0 0 0 0 0 0 0 0 0 0 0
0 0 0 0 0 0 0 0 0 0 0 0 0 0 0 0 0 0 0 0 0 0 0 0 0 0 0 0 0 0 0 0 0 0 0 0 0 0 0 0 0 0 0
0 0 0 0 0 0 0 0 0 0 0 0 0 0 0 0 0 0 0 0 0 0 0 0 0 0 0 0 0 0 0 0 0 0 0 0 0 0 0 0 0 0 0
0 0 0 0 0 0 0 0 0 0 0 0 0 0 0 0 0 0 0 0 0 0 0 0 0 0 0 0 0 0 0 0 0 0 0 0 0 0 0 0 0 0 0
0 0 0 0 0 0 0 0 0 0 0 0 0 0 0 0 0 0 0 0 0 0 0 0 0 0 0 0 0 0 0 0 0 0 0 0 0 0 0 0 0 0 0
0 0 0 0 0 0 0 0 0 0 0 0 0 0 0 0 0 0 0 0 0 0 0 0 0 0 0 0 0 0 0 0 0 0 0 0 0 0 0 0 0 0 0
0 0 0 0 0 0 0 0 0 0 0 0 0 0 0 0 0 0 0 0 0 0 0 0 0 0 0 0 0 0 0 0 0 0 0 0 0 0 0 0 0 0 0
0 0 0 0 0 0 0 0 0 0 0 0 0 0 0 0 0 0 0 0 0 0 0 0 0 0 0 0 0 0 0 0 0 0 0 0 0 0 0 0 0 0 0
Wind_Speed
13 10 9 8 8 7 7 10 12 14 12 9 10 10 11 9 9 8 10 11 11 11 10 9 8 7 6 6 6 4 3 2 1 3 2 3 2 1 1 1 1 2 2
11 10 9 8 7 8 7 8 11 12 13 13 12 10 10 7 7 7 9 12 13 13 11 12 9 7 6 6 5 4 3 2 1 3 3 1 2 2 2 1 1 2 2
15 12 10 10 8 8 8 8 10 12 13 12 7 5 4 3 3 6 8 10 13 13 13 13 11 9 8 7 6 5 6 4 1 1 3 4 4 2 2 2 2 2 2
12 11 10 9 9 9 8 8 8 10 11 12 11 13 11 9 9 8 7 9 11 13 13 13 13 11 7 7 6 5 4 5 3 1 2 2 3 3 1 2 2 1 1
10 10 9 9 8 7 6 6 7 8 10 12 14 15 10 7 5 6 8 8 8 10 12 13 12 12 9 8 7 5 5 4 4 3 2 2 2 2 2 2 4 3 2
7 7 6 5 5 4 4 4 5 6 8 12 14 16 14 11 11 10 10 8 6 7 10 11 12 11 10 9 8 6 6 4 4 3 3 3 3 2 2 2 3 3 3
6 6 6 5 5 4 4 3 4 5 7 10 12 14 15 17 18 15 13 12 9 7 12 11 11 10 10 9 8 7 6 6 6 4 3 2 2 3 3 2 2 2 3
6 6 6 6 5 4 3 3 3 4 6 9 11 11 12 11 11 13 13 13 10 8 10 10 9 10 11 10 8 7 5 5 5 5 4 3 2 2 3 3 2 2 3
8 8 7 6 6 5 4 4 4 4 5 7 9 10 11 11 12 12 10 8 8 8 10 10 10 10 10 10 9 6 6 5 4 4 4 3 2 2 2 3 3 3 3
8 9 8 6 6 5 5 4 4 5 6 6 8 9 11 11 12 12 13 11 11 11 13 12 11 10 10 9 8 7 6 5 4 3 4 3 2 2 2 3 3 4 4
12 11 9 7 6 6 5 4 4 4 5 6 7 9 11 11 12 12 13 13 12 14 14 13 12 11 10 9 8 6 6 6 4 3 4 3 3 3 2 2 2 3 4
13 12 10 8 6 6 5 5 5 5 5 6 8 10 11 12 12 12 13 13 14 14 13 13 12 11 10 8 8 8 6 5 4 3 2 2 2 3 3 3 3 3 4
14 12 9 7 7 6 5 5 4 5 4 6 8 10 12 12 12 12 13 14 14 13 13 12 11 10 8 8 7 7 6 5 4 2 1 2 2 3 3 4 4 4 4
12 10 7 7 6 4 3 3 4 3 1 5 8 10 10 11 12 13 13 13 14 14 12 11 10 10 9 8 7 7 6 5 4 3 1 1 3 4 4 4 5 5 4
11 9 6 5 4 2 2 3 4 3 4 6 7 8 9 12 13 13 13 13 13 13 13 13 11 10 8 7 7 6 6 4 3 2 2 2 4 5 5 4 4 4 3
11 8 5 4 3 2 3 5 6 7 9 10 10 10 12 14 14 15 14 14 14 13 13 12 10 8 7 11 11 7 4 3 2 2 3 4 4 6 8 10 10 10 6
10 8 6 5 6 6 7 8 9 10 12 12 12 11 13 15 16 16 16 15 13 13 12 10 9 8 8 10 9 8 4 3 2 2 3 3 4 6 4 8 12 11 13
8 7 7 8 8 9 10 11 12 12 13 13 12 12 14 16 15 15 15 13 11 10 9 9 8 6 6 8 7 8 4 3 2 2 1 2 4 6 7 5 4 4 6
6 7 7 8 9 10 10 12 13 12 13 13 13 12 14 14 14 14 12 10 10 9 7 6 6 5 5 7 6 7 2 1 1 2 3 4 4 11 14 7 5 7 7
6 7 7 9 9 9 10 12 12 12 12 11 11 11 12 13 13 12 10 8 8 7 6 5 4 4 3 4 4 5 2 1 1 2 3 7 9 13 14 7 6 8 8
6 7 8 8 8 8 9 11 10 10 10 10 11 12 12 12 11 9 7 7 6 6 5 5 3 2 2 1 1 1 2 0 2 3 3 4 13 15 16 13 6 10 11
6 6 7 7 7 7 9 11 10 9 9 11 11 11 10 9 8 8 7 6 6 6 5 4 3 2 3 3 4 6 6 6 2 3 3 6 15 16 15 11 12 16 13
5 6 7 8 8 7 8 10 8 9 10 11 11 9 9 8 7 7 7 5 5 4 3 3 2 2 2 4 7 8 9 11 5 4 10 13 14 13 9 12 15 11 5
5 5 7 8 8 7 8 8 8 8 9 10 9 8 8 7 6 5 5 4 3 3 3 2 2 1 2 3 3 3 4 7 7 6 8 11 11 9 10 10 8 5 5
5 5 6 7 7 7 7 7 6 8 10 9 8 7 6 6 5 4 3 4 2 3 3 2 1 0 2 4 8 5 3 4 5 4 1 2 4 4 5 5 5 5 6
6 6 7 7 7 7 7 6 6 7 9 8 6 5 4 4 4 3 3 5 4 5 4 2 2 3 5 8 10 12 13 12 12 5 3 4 4 5 6 7 7 7 6
Wind_Direction
259 261 252 244 244 244 221 208 204 203 195 188 188 188 192 190 187 184 174 168 162 160 155 151 149 146 143 147 138 118 104 73 75 89 48 12 24 65 110 164 150 142 136
263 260 255 249 237 237 232 216 210 206 200 196 193 193 190 188 185 171 167 167 164 164 161 156 158 153 141 144 147 135 123 93 65 124 115 58 337 336 11 21 129 104 88
252 254 252 249 244 242 238 229 215 210 206 199 184 149 111 92 134 167 172 173 169 169 165 162 157 155 154 162 162 151 142 142 86 87 140 152 205 274 326 8 51 80 82
251 249 248 249 246 246 245 240 227 214 205 194 184 175 177 179 185 179 171 168 170 169 165 162 159 158 156 159 163 154 147 139 143 109 74 123 145 155 292 323 343 6 69
251 249 246 243 248 250 249 246 236 222 206 197 192 189 186 174 152 149 154 161 165 167 165 163 159 159 157 158 152 145 142 137 147 151 141 116 86 111 150 271 314 329 321
256 249 249 243 250 255 256 249 236 227 207 200 197 194 182 159 152 159 164 165 161 162 166 165 161 159 156 155 150 142 142 137 134 135 138 146 149 161 158 214 267 285 293
265 253 242 227 227 234 242 241 228 229 212 203 201 199 185 172 171 170 171 168 169 170 174 167 162 157 152 146 143 138 140 140 139 142 139 139 147 143 147 169 243 277 291
308 287 264 245 232 230 227 235 232 233 217 206 203 197 185 177 176 174 171 175 175 168 162 157 155 149 147 145 143 137 137 137 141 146 144 143 154 147 154 164 173 285 297
323 308 293 279 263 251 239 234 235 237 225 209 199 189 181 176 172 170 163 159 149 145 147 145 146 146 145 144 143 141 138 141 147 151 152 147 153 147 151 154 159 182 259
319 308 299 286 276 270 265 259 242 233 230 212 196 185 178 173 166 162 161 157 151 149 148 146 147 145 142 142 139 136 139 143 149 153 154 158 163 162 164 169 177 180 199
300 293 288 279 273 278 275 271 268 252 230 205 186 171 165 160 161 163 161 155 149 149 151 150 149 148 146 143 139 138 147 149 151 153 169 190 182 185 195 197 200 207 200
293 284 276 273 271 274 281 280 274 256 231 197 173 165 157 156 159 158 154 150 148 147 147 145 145 146 144 141 141 143 146 146 149 155 168 205 204 211 213 212 222 228 221
294 284 275 271 272 270 282 293 290 271 234 177 161 155 155 155 153 149 145 143 140 138 139 139 140 137 132 125 123 122 118 112 110 112 163 235 223 235 234 232 235 238 244
302 294 282 278 278 280 295 318 323 307 191 149 147 148 149 142 137 135 134 133 132 132 129 125 119 115 111 108 107 106 101 94 85 71 45 275 239 238 241 240 241 244 254
316 312 305 299 303 319 357 11 11 32 81 100 108 113 115 117 117 118 117 117 117 116 113 108 103 102 102 105 105 99 94 86 68 34 348 301 277 266 264 255 242 237 246
327 326 330 352 10 31 57 63 60 60 75 84 89 97 105 107 106 105 104 102 102 102 101 101 104 99 100 107 103 99 90 80 52 359 333 312 301 302 315 310 302 296 289
340 353 15 33 46 58 70 74 75 77 80 85 90 95 101 100 99 99 97 96 97 96 95 96 97 98 106 110 110 107 104 80 46 12 356 350 342 348 310 300 302 303 303
359 21 40 52 56 63 71 78 81 84 87 89 92 94 96 96 96 96 95 95 95 96 97 99 106 114 130 130 124 111 97 83 57 37 17 319 312 312 302 278 277 275 281
23 38 51 63 69 72 80 85 85 88 91 92 92 93 96 99 98 97 96 97 99 98 101 114 132 142 148 145 134 127 126 110 342 310 317 328 315 311 311 309 296 286 279
39 52 60 67 72 76 85 88 89 89 91 93 92 91 93 96 97 98 100 101 106 113 119 121 132 147 170 174 151 142 164 210 293 307 314 326 320 310 311 303 289 289 284
50 60 67 69 70 78 88 90 89 90 93 94 92 89 89 93 98 100 104 111 110 105 100 99 96 123 171 184 347 30 154 234 321 316 309 300 314 312 313 315 300 294 304
62 66 71 68 65 76 89 90 87 90 93 94 93 92 93 96 101 103 98 94 97 96 99 102 87 55 28 16 1 4 358 342 321 294 283 286 308 316 322 322 309 313 324
77 75 79 75 66 68 85 94 93 97 98 95 94 92 89 86 89 95 96 88 88 97 104 108 98 56 24 7 8 353 338 329 320 285 301 308 317 327 327 314 317 326 322
93 93 92 88 81 79 83 95 102 102 100 95 90 88 89 84 77 80 87 95 102 109 113 109 92 34 358 333 309 293 300 309 305 293 299 319 331 329 319 317 317 308 295
103 99 100 100 98 96 93 92 95 100 97 92 89 85 84 88 83 79 92 113 132 137 124 121 122 80 301 294 314 323 296 285 280 312 351 344 325 319 313 309 306 305 307
114 109 108 108 105 100 94 87 89 100 106 102 95 93 95 95 97 98 79 74 84 77 84 167 215 249 282 316 333 328 325 327 331 349 334 317 314 311 315 315 312 308 302